Flag for Spain Weather past 2 weeks in Madrid, Spain

Now
64 °F

Sunny.


Feels Like: 64 °F
Forecast: 59 / 84 °F
Wind: 8 mph from Southwest

Location: Madrid / Cuatro Vientos

Current Time: Aug 2, 2014 at 9:13:28 AM

Latest Report: Aug 2, 2014 at 8:30 AM


Visibility: 10 mi

Pressure: 29.89 "Hg

Humidity: 64%

Dew point: 52 °F

Location of MadridLocation

Historic Weather in Madrid — Graph

°F

Madrid temperature yesterday

Maximum temperature yesterday: 82 °F (at 3:30 PM)
Minimum temperature yesterday: 68 °F (at 7:00 AM)
Average temperature yesterday: 76 °F

Past Weeks' High & Low Weather Summary

 TemperatureHumidityPressure
High97 °F (Jul 23, 3:00 PM)77% (Jul 20, 7:00 AM)30.24 "Hg (Jul 20, 7:00 AM)
Low57 °F (Jul 20, 7:00 AM)9% (Jul 25, 7:00 PM)29.83 "Hg (Jul 24, 6:30 PM)
Average82 °F29%29.99 "Hg
* Reported Jul 18 8:00 AM — Aug 2 8:00 AM, Madrid, Weather by CustomWeather, © 2014

Note: Actual official high and low records may vary slightly from our data, if they occured in-between our weather recording intervals... More about our weather records

Advertising

Madrid weather history for previous 24 hours

 ConditionsComfort  
Time TempWeatherWind HumidityBarometerVisibility
8:00 AM
Aug 2
63 °FClear.10 mph68%29.89 "Hg10 mi
7:30 AM63 °FClear.9 mph68%29.86 "Hg10 mi
7:00 AM63 °FClear.10 mph68%29.86 "Hg10 mi
10:00 PM
Aug 1
73 °FPassing clouds.16 mph50%29.86 "HgN/A
9:30 PM73 °FSunny.18 mph50%29.86 "Hg10 mi
9:00 PM75 °FSunny.18 mph47%29.86 "Hg10 mi
8:30 PM77 °FPassing clouds.17 mph44%29.83 "HgN/A
8:00 PM77 °FPassing clouds.15 mph42%29.83 "HgN/A
7:30 PM79 °FSunny.17 mph37%29.86 "Hg10 mi
7:00 PM79 °FSunny.17 mph37%29.86 "Hg10 mi
6:30 PM79 °FPassing clouds.22 mph34%29.86 "HgN/A
6:00 PM79 °FPassing clouds.22 mph34%29.86 "HgN/A
5:30 PM81 °FPassing clouds.21 mph32%29.86 "HgN/A
5:00 PM81 °FPassing clouds.23 mph34%29.86 "HgN/A
4:30 PM81 °FPassing clouds.21 mph34%29.86 "HgN/A
4:00 PM81 °FPassing clouds.22 mph34%29.89 "HgN/A
3:30 PM82 °FPassing clouds.20 mph32%29.89 "HgN/A
3:00 PM79 °FPassing clouds.21 mph37%29.89 "HgN/A
2:30 PM79 °FPassing clouds.21 mph37%29.89 "HgN/A
2:00 PM81 °FPassing clouds.17 mph37%29.92 "HgN/A
1:30 PM79 °FPassing clouds.17 mph37%29.92 "HgN/A
1:00 PM79 °FPassing clouds.17 mph37%29.92 "HgN/A
12:30 PM79 °FPassing clouds.16 mph39%29.92 "HgN/A
12:00 PM79 °FPassing clouds.16 mph37%29.92 "HgN/A
11:30 AM79 °FPassing clouds.12 mph34%29.92 "HgN/A
11:00 AM77 °FPassing clouds.14 mph42%29.92 "HgN/A
10:30 AM75 °FPassing clouds.14 mph41%29.92 "HgN/A
10:00 AM73 °FPassing clouds.16 mph47%29.92 "HgN/A
9:30 AM72 °FSunny.15 mph53%29.92 "Hg10 mi
9:00 AM70 °FSunny.14 mph60%29.92 "Hg10 mi
Weather by CustomWeather, © 2014

See weather overviewHow to use our weather pages